User: anonymous   Login
Location: Asheville, NC
(35.6000°N, 82.5500°W)
Time: 11:48:06
(UTC-05:00)
Language:

NANOSAT C BR1 - Orbit

View from above orbital plane
View from above orbital plane
View from above satellite
View from above satellite

Ground track
Ground track

The orbit data is extracted from the following two-line orbital elements,

1 40024U 14033Q   18051.74973734 +.00000308 +00000-0 +38271-4 0  9996
2 40024 097.9121 328.7265 0011666 198.1399 161.9403 14.89480076199026
Epoch (UTC): 20 February 2018 17:59:37
Eccentricity: 0.0011666
inclination: 97.9121°
perigee height: 591 km
apogee height: 608 km
right ascension of ascending node: 328.7265°
argument of perigee: 198.1399°
revolutions per day: 14.89480076
mean anomaly at epoch: 161.9403°
orbit number at epoch: 19902

The dashed part of the orbit path shows where the satellite is in the earth's shadow,  

DLR